This is the latest recevied weather packets stored in our database for station/object W6SNO-1. If no packets are shown the sender has not sent any weather packets the latest 10 day(s).
| Time | Temp. | Humidity | Pressure | Rain* | Wind** | Luminosity | Snow |
|---|---|---|---|---|---|---|---|
| 1777694618 | 14.44° C | 85% | 1013.7 hPa | 0 mm | - | 0 W/m² | - |
| 1777694314 | 14.44° C | 85% | 1013.3 hPa | 0 mm | - | 0 W/m² | - |
| 1777694011 | 14.44° C | 85% | 1013.3 hPa | 0 mm | - | 0 W/m² | - |
| 1777693708 | 14.44° C | 84% | 1013.5 hPa | 0 mm | - | 0 W/m² | - |
| 1777693406 | 14.44° C | 84% | 1013.3 hPa | 0 mm | - | 0 W/m² | - |
| 1777693104 | 14.44° C | 83% | 1013.5 hPa | 0 mm | - | 0 W/m² | - |
| 1777692802 | 14.44° C | 83% | 1013.3 hPa | 0 mm | - | 0 W/m² | - |
| 1777692498 | 15° C | 83% | 1013.1 hPa | 0 mm | - | 0 W/m² | - |
| 1777692194 | 15° C | 81% | 1013.1 hPa | 0 mm | - | 0 W/m² | - |
| 1777691892 | 15° C | 81% | 1013.3 hPa | 0 mm | - | 0 W/m² | - |
| 1777691590 | 15.56° C | 80% | 1012.9 hPa | 0 mm | - | 1 W/m² | - |
| 1777691288 | 15.56° C | 80% | 1013.1 hPa | 0 mm | - | 1 W/m² | - |
| 1777690986 | 15.56° C | 79% | 1013 hPa | 0 mm | - | 1 W/m² | - |
| 1777690683 | 16.11° C | 78% | 1013 hPa | 0 mm | - | 2 W/m² | - |
| 1777690381 | 16.11° C | 77% | 1013 hPa | 0 mm | - | 4 W/m² | - |
| 1777690078 | 16.11° C | 77% | 1013 hPa | 0 mm | - | 6 W/m² | - |
| 1777689776 | 16.67° C | 76% | 1012.8 hPa | 0 mm | - | 8 W/m² | - |
| 1777689474 | 16.67° C | 75% | 1012.5 hPa | 0 mm | - | 12 W/m² | - |
| 1777689171 | 17.22° C | 73% | 1012.6 hPa | 0 mm | - | 16 W/m² | - |
| 1777688869 | 17.22° C | 73% | 1012.8 hPa | 0 mm | - | 18 W/m² | - |
| 1777688565 | 17.22° C | 73% | 1012.6 hPa | 0 mm | - | 22 W/m² | - |
| 1777688262 | 17.78° C | 72% | 1012.5 hPa | 0 mm | - | 25 W/m² | - |
| 1777687960 | 17.78° C | 70% | 1012.4 hPa | 0 mm | - | 28 W/m² | - |
| 1777687656 | 18.33° C | 69% | 1012.6 hPa | 0 mm | - | 38 W/m² | - |
| 1777687354 | 18.89° C | 69% | 1012.5 hPa | 0 mm | - | 47 W/m² | - |
* Rain latest hour (hover to see other rain measurements)
** Current wind speed in m/s (hover to see current wind gust speed)